Regional Weather Roundup
Issued by NWS

Home | Current Version | Previous Version | Text Only | Print | Product List | Glossary On
Versions: 1 2 3 4 5 6 7 8 9 10 11 12 13 14 15 16 17 18 19 20 21 22 23 24 25 26 27 28 29 30 31 32 33 34 35 36 37 38 39 40 41 42 43 44 45 46 47 48 49 50
000
ASUS43 KLMK 221610
RWRKY
KENTUCKY REGIONAL WEATHER ROUNDUP
NATIONAL WEATHER SERVICE LOUISVILLE KY
1200 PM EDT TUE JUL 22 2014

NOTE "FAIR" INDICATES FEW OR NO CLOUDS BELOW 12,000 FEET
WITH NO SIGNIFICANT WEATHER AND/OR OBSTRUCTIONS TO VISIBILITY.

KYZ001>023-026-027-061>063-070>075-221700-
WESTERN AND SOUTH CENTRAL KENTUCKY

CITY           SKY/WX    TMP DP  RH WIND       PRES   REMARKS
PADUCAH        SUNNY     89  70  53 NE3       30.09R HX  94
HENDERSON      SUNNY     84  72  65 N3        30.08S
OWENSBORO      SUNNY     88  73  60 SW6       30.09S HX  95
HOPKINSVILLE   PTSUNNY   85  71  62 VRB5      30.09S HX  90
BOWLING GREEN  SUNNY     87  69  54 SE12      30.10S HX  91
GLASGOW        PTSUNNY   85  69  57 S7        30.11F
$$

KYZ024-025-028>034-038-045-046-053-221700-
NORTH CENTRAL KENTUCKY

CITY           SKY/WX    TMP DP  RH WIND       PRES   REMARKS
LOUISVILLE/SDF MOSUNNY   86  70  58 CALM      30.09F HX  90
LOUISVILLE/LOU SUNNY     87  70  56 SE3       30.10S HX  92
FORT KNOX      SUNNY     87  73  63 CALM      30.10S HX  93
$$

KYZ035>037-039>044-047>052-055>060-089>105-221700-
NORTHEAST KENTUCKY

CITY           SKY/WX    TMP DP  RH WIND       PRES   REMARKS
LEXINGTON      SUNNY     86  73  65 CALM      30.13S HX  93
COVINGTON      MOSUNNY   85  68  56 S5        30.11F
FRANKFORT      MOSUNNY   85  69  58 S3        30.10F
$$

KYZ054-064>069-076>088-106>120-221700-
SOUTHEAST KENTUCKY

CITY           SKY/WX    TMP DP  RH WIND       PRES   REMARKS
JACKSON        SUNNY     81  69  67 CALM      30.16F
LONDON         MOSUNNY   84  69  60 S6        30.15F
SOMERSET       MOSUNNY   82  70  65 CALM      30.14F
MIDDLESBORO    MOSUNNY   83  69  63 CALM      30.16F
MONTICELLO     SUNNY     86  72  62 W5        30.15F HX  92
$$




USA.gov is the U.S. government's official web portal to all federal, state and local government web resources and services.